Powrót do katalogu

SL-14 R/B

AktywnyPO
NORAD 17567·ROCKET BODY·🇷🇺 Russia

Wystrzelony Mar 3, 1987 z Plesetsk Cosmodrome

Loading…

Następne Przeloty (najbliższe 24 godziny)

TLE

ŚwieżeSource: Space-Track

Epoka: Sep 14, 2026, 11:47 UTC

1 17567U 87024B   26257.49113197  .00000272  00000-0  28131-4 0  9994
2 17567  82.5248 275.3146 0018126   0.5344 359.5888 14.86265437116177

Śledź SL-14 R/B w czasie rzeczywistym z AllMySat

Download on the App Store